Location: C�mpuri de-Sus
(45.9500°N, 22.5500°E)
Time: 04:41:06
(UTC+00:00)

IRS-P2 Rocket - Pass Details

Date: 24 October 2021
Orbit: 794 x 876 km, 99.1° (Epoch: 30 November)

Event Time Altitude Azimuth Distance (km) Brightness Sun altitude
Exits shadow 17:40:55 54° 136° (SE) 967 4.7 -23.7°
Maximum altitude 17:42:03 73° 72° (ENE) 837 4.4 -23.9°
Drops below altitude 10° 17:47:15 10° 349° (N) 2,374 7.2 -24.8°
Sets 17:49:35 0° 348° (NNW) 3,309 8.1 -25.2°
